| time (UTC) | temp F | wind direction | speed MPH | gust MPH | rain 1hr in | rain 24hr in | rain mn in | humidity % | barometer mb |
| 20260904015359 | 58 | 331 | 5.0 | 7.0 | 0.00 | 0.00 | 0.00 | 76 | 1016.9 |
| 20260904014857 | 58 | 343 | 5.0 | 6.0 | 0.00 | 0.00 | 0.00 | 77 | 1016.9 |
| 20260904014352 | 59 | 337 | 6.0 | 7.0 | 0.00 | 0.00 | 0.00 | 76 | 1016.9 |
| 20260904013848 | 59 | 329 | 4.0 | 5.0 | 0.00 | 0.00 | 0.00 | 75 | 1017.3 |
| 20260904013344 | 59 | 343 | 5.0 | 6.0 | 0.00 | 0.00 | 0.00 | 75 | 1017.2 |
| 20260904012840 | 60 | 9 | 6.0 | 7.0 | 0.00 | 0.00 | 0.00 | 74 | 1017.5 |
| 20260904012334 | 60 | 358 | 7.0 | 8.0 | 0.00 | 0.00 | 0.00 | 74 | 1017.3 |
| 20260904011833 | 61 | 329 | 7.0 | 7.0 | 0.00 | 0.00 | 0.00 | 73 | 1017.6 |
| 20260904011329 | 61 | 328 | 8.0 | 10.0 | 0.00 | 0.00 | 0.00 | 73 | 1017.5 |
| 20260904010824 | 61 | 314 | 10.0 | 11.0 | 0.00 | 0.00 | 0.00 | 73 | 1017.5 |
| 20260904010321 | 62 | 343 | 7.0 | 7.0 | 0.00 | 0.00 | 0.00 | 72 | 1017.7 |
| 20260904005821 | 63 | 339 | 8.0 | 9.0 | 0.00 | 0.00 | 0.00 | 71 | 1017.6 |
| 20260904005317 | 63 | 332 | 7.0 | 8.0 | 0.00 | 0.00 | 0.00 | 71 | 1017.5 |
| 20260904004811 | 63 | 352 | 7.0 | 9.0 | 0.00 | 0.00 | 0.00 | 69 | 1017.7 |
| 20260904004307 | 64 | 14 | 8.0 | 10.0 | 0.00 | 0.00 | 0.00 | 68 | 1017.7 |
| 20260904003802 | 64 | 337 | 8.0 | 9.0 | 0.00 | 0.00 | 0.00 | 68 | 1017.9 |
| 20260904003259 | 63 | 326 | 6.0 | 8.0 | 0.00 | 0.00 | 0.00 | 68 | 1017.8 |
| 20260904002753 | 63 | 27 | 7.0 | 8.0 | 0.00 | 0.00 | 0.00 | 68 | 1017.8 |
| 20260904002250 | 63 | 3 | 4.0 | 5.0 | 0.00 | 0.00 | 0.00 | 67 | 1017.8 |
| 20260904001749 | 64 | 39 | 8.0 | 9.0 | 0.00 | 0.00 | 0.00 | 69 | 1017.9 |
| 20260904001244 | 63 | 356 | 9.0 | 11.0 | 0.00 | 0.00 | 0.00 | 70 | 1018.0 |
| 20260904000739 | 62 | 17 | 5.0 | 6.0 | 0.00 | 0.00 | 0.00 | 71 | 1018.0 |
| 20260904000234 | 62 | 359 | 5.0 | 6.0 | 0.00 | 0.00 | 0.00 | 72 | 1018.0 |
| 20260903235734 | 62 | 359 | 6.0 | 8.0 | 0.00 | 0.00 | 0.00 | 71 | 1018.1 |
| 20260903235230 | 62 | 338 | 6.0 | 9.0 | 0.00 | 0.00 | 0.00 | 71 | 1017.9 |
| 20260903234729 | 62 | 332 | 3.0 | 7.0 | 0.00 | 0.00 | 0.00 | 72 | 1018.4 |
| 20260903234226 | 62 | 327 | 4.0 | 6.0 | 0.00 | 0.00 | 0.00 | 71 | 1018.4 |
| 20260903233721 | 62 | 16 | 4.0 | 6.0 | 0.00 | 0.00 | 0.00 | 71 | 1018.4 |
| 20260903233217 | 63 | 18 | 4.0 | 6.0 | 0.00 | 0.00 | 0.00 | 72 | 1018.4 |
| 20260903232716 | 62 | 333 | 7.0 | 8.0 | 0.00 | 0.00 | 0.00 | 73 | 1018.5 |
| 20260903232212 | 62 | 337 | 8.0 | 9.0 | 0.00 | 0.00 | 0.00 | 74 | 1018.5 |
| 20260903231711 | 63 | 333 | 6.0 | 8.0 | 0.00 | 0.00 | 0.00 | 72 | 1018.7 |
| 20260903231206 | 63 | 358 | 6.0 | 7.0 | 0.00 | 0.00 | 0.00 | 75 | 1018.5 |
| 20260903230702 | 62 | 341 | 7.0 | 9.0 | 0.00 | 0.00 | 0.00 | 75 | 1018.7 |
| 20260903230202 | 61 | 334 | 4.0 | 5.0 | 0.00 | 0.00 | 0.00 | 78 | 1018.7 |
| 20260903225658 | 60 | 304 | 1.0 | 1.0 | 0.00 | 0.00 | 0.00 | 79 | 1019.2 |
| 20260903225154 | 61 | 281 | 1.0 | 2.0 | 0.00 | 0.00 | 0.00 | 80 | 1019.4 |
| 20260903224650 | 61 | 295 | 2.0 | 2.0 | 0.00 | 0.00 | 0.00 | 77 | 1019.1 |
| 20260903224147 | 63 | 346 | 5.0 | 6.0 | 0.00 | 0.00 | 0.00 | 73 | 1018.9 |
| 20260903223641 | 62 | 328 | 2.0 | 2.0 | 0.00 | 0.00 | 0.00 | 70 | 1018.8 |
| 20260903223140 | 62 | 310 | 1.0 | 2.0 | 0.00 | 0.00 | 0.00 | 71 | 1019.0 |
| 20260903222635 | 62 | 342 | 3.0 | 5.0 | 0.00 | 0.00 | 0.00 | 72 | 1018.6 |
| 20260903222133 | 62 | 356 | 8.0 | 10.0 | 0.00 | 0.00 | 0.00 | 70 | 1018.5 |
| 20260903221629 | 63 | 356 | 6.0 | 8.0 | 0.00 | 0.00 | 0.00 | 70 | 1018.3 |
| 20260903221127 | 64 | 7 | 2.0 | 3.0 | 0.00 | 0.00 | 0.00 | 70 | 1018.4 |
| 20260903220626 | 64 | 352 | 8.0 | 10.0 | 0.00 | 0.00 | 0.00 | 69 | 1018.4 |
| 20260903220126 | 63 | 303 | 6.0 | 8.0 | 0.00 | 0.00 | 0.00 | 70 | 1018.5 |
| 20260903215625 | 63 | 6 | 7.0 | 9.0 | 0.00 | 0.00 | 0.00 | 70 | 1018.3 |
| 20260903215120 | 63 | 343 | 6.0 | 8.0 | 0.00 | 0.00 | 0.00 | 70 | 1018.7 |
| 20260903214619 | 63 | 340 | 10.0 | 13.0 | 0.00 | 0.00 | 0.00 | 66 | 1018.4 |
| 20260903214114 | 65 | 337 | 11.0 | 11.0 | 0.00 | 0.00 | 0.00 | 64 | 1018.3 |
| 20260903213610 | 66 | 4 | 6.0 | 8.0 | 0.00 | 0.00 | 0.00 | 61 | 1018.3 |
| 20260903213105 | 65 | 331 | 6.0 | 8.0 | 0.00 | 0.00 | 0.00 | 58 | 1018.4 |
| 20260903212601 | 66 | 341 | 6.0 | 8.0 | 0.00 | 0.00 | 0.00 | 60 | 1018.0 |
| 20260903212056 | 66 | 329 | 6.0 | 8.0 | 0.00 | 0.00 | 0.00 | 60 | 1018.0 |
| 20260903211551 | 66 | 341 | 7.0 | 8.0 | 0.00 | 0.00 | 0.00 | 61 | 1017.7 |
| 20260903211048 | 66 | 350 | 9.0 | 9.0 | 0.00 | 0.00 | 0.00 | 60 | 1018.1 |
| 20260903210542 | 66 | 341 | 5.0 | 7.0 | 0.00 | 0.00 | 0.00 | 56 | 1018.3 |
| 20260903210039 | 68 | 44 | 5.0 | 6.0 | 0.00 | 0.00 | 0.00 | 55 | 1018.1 |
| 20260903205537 | 67 | 309 | 3.0 | 3.0 | 0.00 | 0.00 | 0.00 | 55 | 1018.4 |
| 20260903205032 | 65 | 331 | 4.0 | 6.0 | 0.00 | 0.00 | 0.00 | 62 | 1018.4 |
| 20260903204528 | 65 | 339 | 3.0 | 3.0 | 0.00 | 0.00 | 0.00 | 62 | 1018.4 |
| 20260903204023 | 65 | 304 | 5.0 | 7.0 | 0.00 | 0.00 | 0.00 | 62 | 1018.4 |
| 20260903203519 | 64 | 299 | 3.0 | 5.0 | 0.00 | 0.00 | 0.00 | 63 | 1018.5 |
| 20260903203018 | 65 | 344 | 3.0 | 3.0 | 0.00 | 0.00 | 0.00 | 62 | 1018.5 |
| 20260903202514 | 65 | 296 | 2.0 | 2.0 | 0.00 | 0.00 | 0.00 | 58 | 1018.5 |
| 20260903202009 | 65 | 316 | 3.0 | 5.0 | 0.00 | 0.00 | 0.00 | 57 | 1018.4 |
| 20260903201504 | 65 | 309 | 3.0 | 5.0 | 0.00 | 0.00 | 0.00 | 58 | 1018.5 |
| 20260903201003 | 66 | 301 | 2.0 | 5.0 | 0.00 | 0.00 | 0.00 | 59 | 1018.5 |
| 20260903200458 | 66 | 331 | 5.0 | 7.0 | 0.00 | 0.00 | 0.00 | 58 | 1018.6 |
| 20260903195953 | 67 | 27 | 3.0 | 3.0 | 0.00 | 0.00 | 0.00 | 54 | 1018.4 |
| 20260903195449 | 66 | 265 | 0.0 | 1.0 | 0.00 | 0.00 | 0.00 | 56 | 1018.3 |
| 20260903194944 | 66 | 283 | 3.0 | 3.0 | 0.00 | 0.00 | 0.00 | 58 | 1018.6 |
| 20260903194439 | 65 | 286 | 3.0 | 5.0 | 0.00 | 0.00 | 0.00 | 57 | 1018.8 |
| 20260903193934 | 65 | 325 | 5.0 | 6.0 | 0.00 | 0.00 | 0.00 | 60 | 1018.8 |
| 20260903193431 | 62 | 325 | 3.0 | 3.0 | 0.00 | 0.00 | 0.00 | 66 | 1018.9 |
| 20260903192925 | 63 | 327 | 5.0 | 6.0 | 0.00 | 0.00 | 0.00 | 65 | 1018.9 |
| 20260903192422 | 62 | 272 | 1.0 | 1.0 | 0.00 | 0.00 | 0.00 | 66 | 1019.0 |
| 20260903191918 | 64 | 319 | 2.0 | 2.0 | 0.00 | 0.00 | 0.00 | 65 | 1019.0 |
| 20260903191414 | 64 | 66 | 1.0 | 1.0 | 0.00 | 0.00 | 0.00 | 64 | 1019.0 |
| 20260903190913 | 63 | 217 | 1.0 | 1.0 | 0.00 | 0.00 | 0.00 | 64 | 1019.0 |
| 20260903190408 | 63 | 306 | 1.0 | 2.0 | 0.00 | 0.00 | 0.00 | 65 | 1019.1 |
| 20260903185907 | 62 | 1 | 3.0 | 3.0 | 0.00 | 0.00 | 0.00 | 68 | 1019.0 |
| 20260903185403 | 63 | 325 | 5.0 | 6.0 | 0.00 | 0.00 | 0.00 | 68 | 1018.9 |
| 20260903184858 | 63 | 328 | 1.0 | 3.0 | 0.00 | 0.00 | 0.00 | 67 | 1019.0 |
| 20260903184355 | 63 | 334 | 5.0 | 6.0 | 0.00 | 0.00 | 0.00 | 68 | 1019.0 |
| 20260903183854 | 62 | 311 | 5.0 | 7.0 | 0.00 | 0.00 | 0.00 | 68 | 1019.1 |
| 20260903183349 | 62 | 351 | 1.0 | 2.0 | 0.00 | 0.00 | 0.00 | 66 | 1019.2 |
| 20260903182849 | 62 | 344 | 3.0 | 5.0 | 0.00 | 0.00 | 0.00 | 68 | 1019.2 |
| 20260903182348 | 63 | 291 | 3.0 | 3.0 | 0.00 | 0.00 | 0.00 | 69 | 1019.5 |
| 20260903181843 | 62 | 308 | 1.0 | 1.0 | 0.00 | 0.00 | 0.00 | 73 | 1019.5 |
| 20260903181338 | 62 | 328 | 6.0 | 7.0 | 0.00 | 0.00 | 0.00 | 73 | 1019.7 |
| 20260903180837 | 61 | 338 | 5.0 | 7.0 | 0.00 | 0.00 | 0.00 | 74 | 1019.5 |
| 20260903180332 | 60 | 305 | 2.0 | 2.0 | 0.00 | 0.00 | 0.00 | 78 | 1019.7 |
| 20260903175831 | 60 | 222 | 0.0 | 0.0 | 0.00 | 0.00 | 0.00 | 78 | 1019.9 |
| 20260903175331 | 59 | 188 | 1.0 | 2.0 | 0.00 | 0.00 | 0.00 | 78 | 1019.9 |
| 20260903174826 | 59 | 176 | 2.0 | 2.0 | 0.00 | 0.00 | 0.00 | 79 | 1020.1 |
| 20260903174321 | 58 | 174 | 4.0 | 5.0 | 0.00 | 0.00 | 0.00 | 80 | 1019.9 |
| 20260903173820 | 59 | 162 | 4.0 | 5.0 | 0.00 | 0.00 | 0.00 | 79 | 1019.9 |
| 20260903173310 | 59 | 231 | 0.0 | 1.0 | 0.00 | 0.00 | 0.00 | 79 | 1019.7 |
| 20260903172806 | 59 | 220 | 0.0 | 0.0 | 0.00 | 0.00 | 0.00 | 79 | 1019.8 |
| 20260903172301 | 59 | 185 | 1.0 | 1.0 | 0.00 | 0.00 | 0.00 | 79 | 1019.8 |
| 20260903171756 | 58 | 246 | 0.0 | 0.0 | 0.00 | 0.00 | 0.00 | 80 | 1019.5 |
| 20260903171251 | 58 | 257 | 0.0 | 0.0 | 0.00 | 0.00 | 0.00 | 81 | 1019.8 |
| 20260903170749 | 58 | 201 | 1.0 | 1.0 | 0.00 | 0.00 | 0.00 | 81 | 1019.8 |
| 20260903170245 | 57 | 233 | 0.0 | 0.0 | 0.00 | 0.00 | 0.00 | 81 | 1019.6 |
| 20260903165743 | 57 | 236 | 0.0 | 0.0 | 0.00 | 0.00 | 0.00 | 81 | 1019.7 |
| 20260903165239 | 57 | 183 | 0.0 | 1.0 | 0.00 | 0.00 | 0.00 | 82 | 1019.9 |
| 20260903164733 | 56 | 272 | 0.0 | 0.0 | 0.00 | 0.00 | 0.00 | 82 | 1019.5 |
| 20260903164229 | 56 | 264 | 0.0 | 1.0 | 0.00 | 0.00 | 0.00 | 84 | 1019.8 |
| 20260903163728 | 56 | 328 | 2.0 | 2.0 | 0.00 | 0.00 | 0.00 | 85 | 1019.7 |
| 20260903163225 | 55 | 329 | 3.0 | 3.0 | 0.00 | 0.00 | 0.00 | 86 | 1019.5 |
| 20260903162721 | 55 | 277 | 0.0 | 0.0 | 0.00 | 0.00 | 0.00 | 87 | 1019.6 |
| 20260903162217 | 55 | 259 | 0.0 | 0.0 | 0.00 | 0.00 | 0.00 | 88 | 1019.5 |
| 20260903161713 | 54 | 261 | 0.0 | 1.0 | 0.00 | 0.00 | 0.00 | 89 | 1019.6 |
| 20260903161208 | 54 | 290 | 1.0 | 1.0 | 0.00 | 0.00 | 0.00 | 90 | 1019.7 |
| 20260903160703 | 53 | 294 | 1.0 | 1.0 | 0.00 | 0.00 | 0.00 | 92 | 1019.4 |
| 20260903160157 | 53 | 330 | 4.0 | 5.0 | 0.00 | 0.00 | 0.00 | 93 | 1019.2 |
| 20260903155656 | 53 | 286 | 0.0 | 0.0 | 0.00 | 0.00 | 0.00 | 94 | 1019.4 |
| 20260903155156 | 52 | 253 | 0.0 | 0.0 | 0.00 | 0.00 | 0.00 | 94 | 1019.2 |
| 20260903154652 | 52 | 289 | 0.0 | 1.0 | 0.00 | 0.00 | 0.00 | 95 | 1019.0 |
| 20260903154148 | 52 | 259 | 0.0 | 0.0 | 0.00 | 0.00 | 0.00 | 95 | 1019.4 |
| 20260903153643 | 52 | 234 | 0.0 | 0.0 | 0.00 | 0.00 | 0.00 | 95 | 1019.5 |
| 20260903153139 | 51 | 288 | 1.0 | 1.0 | 0.00 | 0.00 | 0.00 | 95 | 1019.4 |
| 20260903152635 | 51 | 249 | 0.0 | 0.0 | 0.00 | 0.00 | 0.00 | 95 | 1019.5 |
| 20260903152131 | 51 | 226 | 0.0 | 1.0 | 0.00 | 0.00 | 0.00 | 95 | 1019.5 |
| 20260903151631 | 50 | 238 | 0.0 | 0.0 | 0.00 | 0.00 | 0.00 | 96 | 1019.2 |
| 20260903151125 | 50 | 303 | 1.0 | 1.0 | 0.00 | 0.00 | 0.00 | 95 | 1019.4 |
| 20260903150620 | 50 | 260 | 0.0 | 0.0 | 0.00 | 0.00 | 0.00 | 95 | 1019.2 |
| 20260903150115 | 50 | 260 | 0.0 | 0.0 | 0.00 | 0.00 | 0.00 | 95 | 1019.4 |
| 20260903145614 | 49 | 269 | 0.0 | 0.0 | 0.00 | 0.00 | 0.00 | 95 | 1019.5 |
| 20260903145110 | 49 | 281 | 0.0 | 0.0 | 0.00 | 0.00 | 0.00 | 96 | 1019.4 |
| 20260903144609 | 49 | 282 | 0.0 | 1.0 | 0.00 | 0.00 | 0.00 | 95 | 1019.4 |
| 20260903144105 | 49 | 260 | 0.0 | 0.0 | 0.00 | 0.00 | 0.00 | 96 | 1019.6 |
| 20260903143601 | 49 | 257 | 0.0 | 0.0 | 0.00 | 0.00 | 0.00 | 95 | 1019.2 |
| 20260903143056 | 49 | 248 | 0.0 | 0.0 | 0.00 | 0.00 | 0.00 | 96 | 1019.1 |
| 20260903142551 | 49 | 285 | 0.0 | 0.0 | 0.00 | 0.00 | 0.00 | 96 | 1019.1 |
| 20260903142049 | 49 | 277 | 0.0 | 0.0 | 0.00 | 0.00 | 0.00 | 96 | 1018.8 |
| 20260903141543 | 48 | 294 | 0.0 | 0.0 | 0.00 | 0.00 | 0.00 | 96 | 1019.0 |
| 20260903141038 | 48 | 263 | 0.0 | 0.0 | 0.00 | 0.00 | 0.00 | 96 | 1019.1 |
| 20260903140534 | 48 | 259 | 0.0 | 0.0 | 0.00 | 0.00 | 0.00 | 95 | 1019.0 |
| 20260903140035 | 48 | 265 | 0.0 | 0.0 | 0.00 | 0.00 | 0.00 | 95 | 1018.8 |
| 20260903135530 | 48 | 245 | 0.0 | 0.0 | 0.00 | 0.00 | 0.00 | 95 | 1019.4 |
| 20260903135025 | 48 | 244 | 0.0 | 0.0 | 0.00 | 0.00 | 0.00 | 95 | 1018.9 |
| 20260903134524 | 48 | 244 | 0.0 | 0.0 | 0.00 | 0.00 | 0.00 | 95 | 1018.8 |
| 20260903134021 | 48 | 244 | 0.0 | 0.0 | 0.00 | 0.00 | 0.00 | 95 | 1018.9 |
| 20260903133518 | 48 | 243 | 0.0 | 0.0 | 0.00 | 0.00 | 0.00 | 95 | 1018.8 |
| 20260903133013 | 48 | 243 | 0.0 | 0.0 | 0.00 | 0.00 | 0.00 | 95 | 1018.7 |
| 20260903132508 | 48 | 242 | 0.0 | 0.0 | 0.00 | 0.00 | 0.00 | 95 | 1018.7 |
| 20260903132003 | 48 | 250 | 0.0 | 0.0 | 0.00 | 0.00 | 0.00 | 95 | 1018.6 |
| 20260903131458 | 47 | 256 | 0.0 | 0.0 | 0.00 | 0.00 | 0.00 | 95 | 1018.6 |
| 20260903130956 | 47 | 230 | 0.0 | 0.0 | 0.00 | 0.00 | 0.00 | 95 | 1018.5 |
| 20260903130452 | 47 | 230 | 0.0 | 0.0 | 0.00 | 0.00 | 0.00 | 95 | 1018.6 |
| 20260903125950 | 47 | 230 | 0.0 | 0.0 | 0.00 | 0.00 | 0.00 | 95 | 1018.5 |
| 20260903125444 | 47 | 230 | 0.0 | 0.0 | 0.00 | 0.00 | 0.00 | 95 | 1018.3 |
| 20260903124939 | 47 | 231 | 0.0 | 0.0 | 0.00 | 0.00 | 0.00 | 95 | 1018.4 |
| 20260903124434 | 47 | 224 | 0.0 | 0.0 | 0.00 | 0.00 | 0.00 | 95 | 1018.5 |
| 20260903123933 | 47 | 236 | 0.0 | 0.0 | 0.00 | 0.00 | 0.00 | 95 | 1018.5 |
| 20260903123428 | 47 | 236 | 0.0 | 0.0 | 0.00 | 0.00 | 0.00 | 95 | 1018.4 |
| 20260903122926 | 47 | 239 | 0.0 | 0.0 | 0.00 | 0.00 | 0.00 | 95 | 1018.3 |
| 20260903122421 | 47 | 217 | 0.0 | 0.0 | 0.00 | 0.00 | 0.00 | 95 | 1018.4 |
| 20260903121920 | 47 | 246 | 0.0 | 0.0 | 0.00 | 0.00 | 0.00 | 95 | 1018.3 |
| 20260903121415 | 47 | 248 | 0.0 | 0.0 | 0.00 | 0.00 | 0.00 | 95 | 1018.4 |
| 20260903120912 | 47 | 241 | 0.0 | 0.0 | 0.00 | 0.00 | 0.00 | 95 | 1018.1 |
| 20260903120410 | 47 | 237 | 0.0 | 0.0 | 0.00 | 0.00 | 0.00 | 95 | 1018.1 |
| 20260903115909 | 47 | 226 | 0.0 | 0.0 | 0.00 | 0.00 | 0.00 | 95 | 1018.1 |
| 20260903115409 | 47 | 207 | 0.0 | 0.0 | 0.00 | 0.00 | 0.00 | 95 | 1018.3 |
| 20260903114903 | 47 | 216 | 0.0 | 0.0 | 0.00 | 0.00 | 0.00 | 95 | 1018.3 |
| 20260903114359 | 47 | 209 | 0.0 | 0.0 | 0.00 | 0.00 | 0.00 | 95 | 1018.1 |
| 20260903113855 | 47 | 219 | 0.0 | 0.0 | 0.00 | 0.00 | 0.00 | 95 | 1018.1 |
| 20260903113350 | 47 | 235 | 0.0 | 0.0 | 0.00 | 0.00 | 0.00 | 95 | 1018.0 |
| 20260903112846 | 47 | 218 | 0.0 | 0.0 | 0.00 | 0.00 | 0.00 | 95 | 1018.0 |
| 20260903112342 | 47 | 239 | 0.0 | 0.0 | 0.00 | 0.00 | 0.00 | 95 | 1018.0 |
| 20260903111840 | 47 | 241 | 0.0 | 0.0 | 0.00 | 0.00 | 0.00 | 95 | 1018.3 |
| 20260903111335 | 47 | 241 | 0.0 | 0.0 | 0.00 | 0.00 | 0.00 | 95 | 1018.0 |
| 20260903110831 | 47 | 240 | 0.0 | 0.0 | 0.00 | 0.00 | 0.00 | 95 | 1017.8 |
| 20260903110327 | 47 | 248 | 0.0 | 0.0 | 0.00 | 0.00 | 0.00 | 95 | 1017.9 |
| 20260903105826 | 47 | 258 | 0.0 | 0.0 | 0.00 | 0.00 | 0.00 | 95 | 1018.0 |
| 20260903105326 | 47 | 284 | 0.0 | 0.0 | 0.00 | 0.00 | 0.00 | 95 | 1018.0 |
| 20260903104821 | 47 | 262 | 0.0 | 0.0 | 0.00 | 0.00 | 0.00 | 95 | 1017.9 |
| 20260903104316 | 47 | 258 | 0.0 | 0.0 | 0.00 | 0.00 | 0.00 | 95 | 1017.9 |
| 20260903103813 | 47 | 254 | 0.0 | 0.0 | 0.00 | 0.00 | 0.00 | 95 | 1018.0 |
| 20260903103308 | 47 | 254 | 0.0 | 0.0 | 0.00 | 0.00 | 0.00 | 95 | 1018.3 |
| 20260903102804 | 46 | 18 | 0.0 | 0.0 | 0.00 | 0.00 | 0.00 | 95 | 1017.9 |
| 20260903102258 | 46 | 252 | 0.0 | 0.0 | 0.00 | 0.00 | 0.00 | 95 | 1017.9 |
| 20260903101756 | 46 | 252 | 0.0 | 0.0 | 0.00 | 0.00 | 0.00 | 95 | 1017.9 |
| 20260903101252 | 46 | 249 | 0.0 | 0.0 | 0.00 | 0.00 | 0.00 | 95 | 1018.0 |
| 20260903100748 | 46 | 247 | 0.0 | 0.0 | 0.00 | 0.00 | 0.00 | 95 | 1017.8 |
| 20260903100242 | 46 | 272 | 0.0 | 0.0 | 0.00 | 0.00 | 0.00 | 95 | 1018.1 |
| 20260903095739 | 46 | 256 | 0.0 | 0.0 | 0.00 | 0.00 | 0.00 | 95 | 1018.0 |
| 20260903095234 | 46 | 241 | 0.0 | 0.0 | 0.00 | 0.00 | 0.00 | 95 | 1018.3 |
| 20260903094728 | 47 | 264 | 0.0 | 0.0 | 0.00 | 0.00 | 0.00 | 95 | 1018.0 |
| 20260903094218 | 47 | 283 | 0.0 | 0.0 | 0.00 | 0.00 | 0.00 | 95 | 1018.0 |
| 20260903093714 | 46 | 274 | 0.0 | 0.0 | 0.00 | 0.00 | 0.00 | 95 | 1018.0 |
| 20260903093209 | 46 | 266 | 0.0 | 0.0 | 0.00 | 0.00 | 0.00 | 95 | 1017.9 |
| 20260903092708 | 46 | 262 | 0.0 | 0.0 | 0.00 | 0.00 | 0.00 | 95 | 1017.9 |
| 20260903092203 | 46 | 286 | 0.0 | 0.0 | 0.00 | 0.00 | 0.00 | 95 | 1017.9 |
| 20260903091702 | 46 | 311 | 2.0 | 2.0 | 0.00 | 0.00 | 0.00 | 95 | 1018.0 |
| 20260903091156 | 46 | 286 | 0.0 | 0.0 | 0.00 | 0.00 | 0.00 | 95 | 1017.8 |
| 20260903090652 | 46 | 239 | 0.0 | 0.0 | 0.00 | 0.00 | 0.00 | 95 | 1017.8 |
| 20260903090150 | 46 | 290 | 1.0 | 1.0 | 0.00 | 0.00 | 0.00 | 95 | 1017.6 |
| 20260903085649 | 46 | 324 | 1.0 | 1.0 | 0.00 | 0.00 | 0.00 | 95 | 1017.8 |
| 20260903085145 | 46 | 340 | 1.0 | 2.0 | 0.00 | 0.00 | 0.00 | 95 | 1017.8 |
| 20260903084643 | 46 | 322 | 1.0 | 1.0 | 0.00 | 0.00 | 0.00 | 95 | 1017.5 |
| 20260903084138 | 46 | 265 | 0.0 | 0.0 | 0.00 | 0.00 | 0.00 | 95 | 1017.6 |
| 20260903083634 | 46 | 251 | 0.0 | 0.0 | 0.00 | 0.00 | 0.00 | 95 | 1017.5 |
| 20260903083133 | 46 | 250 | 0.0 | 0.0 | 0.00 | 0.00 | 0.00 | 95 | 1017.8 |
| 20260903082628 | 46 | 226 | 0.0 | 0.0 | 0.00 | 0.00 | 0.00 | 95 | 1017.7 |
| 20260903082124 | 46 | 235 | 0.0 | 0.0 | 0.00 | 0.00 | 0.00 | 95 | 1017.7 |
| 20260903081618 | 45 | 227 | 0.0 | 0.0 | 0.00 | 0.00 | 0.00 | 95 | 1017.7 |
| 20260903081114 | 45 | 237 | 0.0 | 0.0 | 0.00 | 0.00 | 0.00 | 95 | 1017.9 |
| 20260903080610 | 45 | 224 | 0.0 | 0.0 | 0.00 | 0.00 | 0.00 | 95 | 1017.7 |
| 20260903080108 | 45 | 257 | 0.0 | 0.0 | 0.00 | 0.00 | 0.00 | 95 | 1017.9 |
| 20260903075601 | 45 | 251 | 0.0 | 0.0 | 0.00 | 0.00 | 0.00 | 95 | 1017.6 |
| 20260903075056 | 46 | 296 | 1.0 | 1.0 | 0.00 | 0.00 | 0.00 | 95 | 1017.6 |
| 20260903074555 | 46 | 279 | 0.0 | 0.0 | 0.00 | 0.00 | 0.00 | 95 | 1017.6 |
| 20260903074050 | 46 | 215 | 0.0 | 0.0 | 0.00 | 0.00 | 0.00 | 95 | 1017.7 |
| 20260903073546 | 45 | 249 | 0.0 | 0.0 | 0.00 | 0.00 | 0.00 | 95 | 1017.6 |
| 20260903073042 | 46 | 265 | 0.0 | 0.0 | 0.00 | 0.00 | 0.00 | 95 | 1017.6 |
| 20260903072537 | 45 | 224 | 0.0 | 0.0 | 0.00 | 0.00 | 0.00 | 94 | 1017.6 |
| 20260903072033 | 45 | 230 | 0.0 | 0.0 | 0.00 | 0.00 | 0.00 | 95 | 1017.5 |
| 20260903071530 | 46 | 230 | 0.0 | 0.0 | 0.00 | 0.00 | 0.00 | 95 | 1017.6 |
| 20260903071025 | 45 | 225 | 0.0 | 0.0 | 0.00 | 0.00 | 0.00 | 95 | 1017.6 |
| 20260903070524 | 45 | 253 | 0.0 | 0.0 | 0.00 | 0.00 | 0.00 | 94 | 1017.4 |
| 20260903070020 | 44 | 245 | 0.0 | 0.0 | 0.00 | 0.00 | 0.00 | 95 | 1017.6 |
| 20260903065514 | 44 | 255 | 0.0 | 0.0 | 0.00 | 0.00 | 0.00 | 94 | 1017.4 |
| 20260903065014 | 44 | 258 | 0.0 | 0.0 | 0.00 | 0.00 | 0.00 | 94 | 1017.7 |
| 20260903064513 | 45 | 245 | 0.0 | 0.0 | 0.00 | 0.00 | 0.00 | 94 | 1017.4 |
| 20260903064009 | 45 | 231 | 0.0 | 0.0 | 0.00 | 0.00 | 0.00 | 94 | 1017.6 |
| 20260903063504 | 45 | 214 | 0.0 | 0.0 | 0.00 | 0.00 | 0.00 | 94 | 1017.5 |
| 20260903062959 | 45 | 233 | 0.0 | 0.0 | 0.00 | 0.00 | 0.00 | 94 | 1017.3 |
| 20260903062454 | 45 | 234 | 0.0 | 0.0 | 0.00 | 0.00 | 0.00 | 94 | 1017.6 |
| 20260903061949 | 46 | 214 | 0.0 | 0.0 | 0.00 | 0.00 | 0.00 | 94 | 1017.3 |
| 20260903061444 | 46 | 233 | 0.0 | 1.0 | 0.00 | 0.00 | 0.00 | 94 | 1017.2 |
| 20260903060940 | 46 | 250 | 0.0 | 0.0 | 0.00 | 0.00 | 0.00 | 94 | 1017.4 |
| 20260903060434 | 46 | 251 | 0.0 | 0.0 | 0.00 | 0.00 | 0.00 | 94 | 1017.6 |
| 20260903055933 | 46 | 233 | 0.0 | 0.0 | 0.00 | 0.26 | 0.26 | 94 | 1017.4 |
| 20260903055431 | 46 | 233 | 0.0 | 0.0 | 0.00 | 0.26 | 0.26 | 94 | 1017.2 |
| 20260903054930 | 47 | 231 | 0.0 | 0.0 | 0.00 | 0.26 | 0.26 | 94 | 1017.7 |
| 20260903054425 | 47 | 223 | 0.0 | 0.0 | 0.00 | 0.26 | 0.26 | 94 | 1017.5 |
| 20260903053922 | 46 | 212 | 0.0 | 0.0 | 0.00 | 0.26 | 0.26 | 94 | 1017.4 |
| 20260903053421 | 46 | 219 | 0.0 | 0.0 | 0.00 | 0.26 | 0.26 | 94 | 1017.4 |
| 20260903052918 | 47 | 290 | 2.0 | 2.0 | 0.00 | 0.26 | 0.26 | 94 | 1017.2 |
| 20260903052414 | 47 | 217 | 0.0 | 1.0 | 0.00 | 0.26 | 0.26 | 94 | 1017.8 |
| 20260903051909 | 47 | 201 | 1.0 | 2.0 | 0.00 | 0.26 | 0.26 | 94 | 1017.7 |
| 20260903051405 | 47 | 175 | 2.0 | 2.0 | 0.00 | 0.26 | 0.26 | 94 | 1017.4 |
| 20260903050900 | 48 | 271 | 0.0 | 0.0 | 0.00 | 0.26 | 0.26 | 94 | 1017.3 |
| 20260903050358 | 48 | 241 | 0.0 | 0.0 | 0.00 | 0.26 | 0.26 | 94 | 1017.3 |
| 20260903045853 | 48 | 200 | 1.0 | 1.0 | 0.00 | 0.26 | 0.26 | 94 | 1017.4 |
| 20260903045349 | 47 | 186 | 1.0 | 1.0 | 0.00 | 0.26 | 0.26 | 94 | 1017.5 |
| 20260903044845 | 47 | 145 | 0.0 | 0.0 | 0.00 | 0.26 | 0.26 | 93 | 1017.4 |
| 20260903044340 | 47 | 276 | 0.0 | 0.0 | 0.00 | 0.26 | 0.26 | 93 | 1017.3 |
| 20260903043836 | 47 | 254 | 0.0 | 0.0 | 0.00 | 0.26 | 0.26 | 93 | 1017.5 |
| 20260903043331 | 48 | 234 | 0.0 | 0.0 | 0.00 | 0.26 | 0.26 | 93 | 1017.5 |
| 20260903042830 | 49 | 224 | 0.0 | 0.0 | 0.00 | 0.26 | 0.26 | 93 | 1017.5 |
| 20260903042325 | 48 | 228 | 0.0 | 0.0 | 0.00 | 0.26 | 0.26 | 93 | 1017.8 |
| 20260903041821 | 48 | 239 | 0.0 | 0.0 | 0.00 | 0.26 | 0.26 | 93 | 1017.7 |
| 20260903041318 | 49 | 256 | 1.0 | 1.0 | 0.00 | 0.26 | 0.26 | 93 | 1017.4 |
| 20260903040813 | 49 | 245 | 0.0 | 0.0 | 0.00 | 0.26 | 0.26 | 93 | 1017.5 |
| 20260903040312 | 49 | 229 | 0.0 | 0.0 | 0.00 | 0.26 | 0.26 | 93 | 1017.6 |
| 20260903035808 | 49 | 226 | 0.0 | 0.0 | 0.00 | 0.26 | 0.26 | 93 | 1017.6 |
| 20260903035306 | 49 | 236 | 0.0 | 0.0 | 0.00 | 0.26 | 0.26 | 92 | 1017.4 |
| 20260903034758 | 49 | 240 | 0.0 | 0.0 | 0.00 | 0.26 | 0.26 | 92 | 1017.6 |
| 20260903034254 | 49 | 246 | 0.0 | 0.0 | 0.00 | 0.26 | 0.26 | 92 | 1017.4 |
| 20260903033749 | 49 | 246 | 0.0 | 0.0 | 0.00 | 0.26 | 0.26 | 92 | 1017.6 |
| 20260903033244 | 49 | 247 | 0.0 | 0.0 | 0.00 | 0.26 | 0.26 | 91 | 1017.6 |
| 20260903032744 | 50 | 233 | 0.0 | 0.0 | 0.00 | 0.26 | 0.26 | 92 | 1017.6 |
| 20260903032240 | 50 | 230 | 0.0 | 0.0 | 0.00 | 0.26 | 0.26 | 91 | 1017.6 |
| 20260903031736 | 50 | 239 | 0.0 | 0.0 | 0.00 | 0.26 | 0.26 | 91 | 1017.4 |
| 20260903031235 | 51 | 235 | 0.0 | 0.0 | 0.00 | 0.26 | 0.26 | 90 | 1017.4 |
| 20260903030731 | 51 | 251 | 0.0 | 0.0 | 0.00 | 0.26 | 0.26 | 90 | 1017.3 |
| 20260903030227 | 52 | 254 | 0.0 | 0.0 | 0.00 | 0.26 | 0.26 | 89 | 1017.4 |
| 20260903025722 | 52 | 260 | 0.0 | 0.0 | 0.00 | 0.26 | 0.26 | 89 | 1017.0 |
| 20260903025217 | 53 | 260 | 0.0 | 0.0 | 0.00 | 0.26 | 0.26 | 88 | 1017.3 |
| 20260903024717 | 54 | 268 | 0.0 | 0.0 | 0.00 | 0.26 | 0.26 | 88 | 1017.0 |
| 20260903024216 | 54 | 175 | 0.0 | 0.0 | 0.00 | 0.26 | 0.26 | 87 | 1017.3 |
| 20260903023712 | 54 | 256 | 0.0 | 0.0 | 0.00 | 0.26 | 0.26 | 86 | 1017.2 |
| 20260903023208 | 54 | 276 | 0.0 | 0.0 | 0.00 | 0.26 | 0.26 | 85 | 1017.3 |
| 20260903022707 | 55 | 243 | 0.0 | 0.0 | 0.00 | 0.26 | 0.26 | 84 | 1017.0 |
| 20260903022206 | 55 | 242 | 0.0 | 0.0 | 0.00 | 0.26 | 0.26 | 84 | 1017.0 |
| 20260903021701 | 55 | 287 | 1.0 | 1.0 | 0.00 | 0.26 | 0.26 | 83 | 1017.3 |
| 20260903021156 | 55 | 306 | 1.0 | 2.0 | 0.00 | 0.26 | 0.26 | 83 | 1016.9 |
| 20260903020651 | 56 | 303 | 1.0 | 1.0 | 0.00 | 0.26 | 0.26 | 82 | 1017.3 |
| 20260903020150 | 56 | 269 | 0.0 | 0.0 | 0.00 | 0.26 | 0.26 | 81 | 1017.3 |